,

(GMT )
Dublin

Weather History for EIDW - November, 2013

Change the Weather History Date:

Saturday, November 2, 2013

  Actual Average Record
Temperature  
Mean Temperature 42 °F -  
Max Temperature 52 °F 52 °F 62 °F (2005)
Min Temperature 33 °F 41 °F 32 °F (2006)
Degree Days  
Heating Degree Days 22    
Moisture  
Dew Point 39 °F    
Average Humidity 83    
Maximum Humidity 100    
Minimum Humidity 67    
Precipitation  
Precipitation 0.08 in - - ()
Sea Level Pressure  
Sea Level Pressure 29.23 in    
Wind  
Wind Speed 14 mph ()    
Max Wind Speed 34 mph    
Max Gust Speed 52 mph    
Visibility 6.9 miles    
Events Rain    
Averages and records for this station are not official NWS values.
T = Trace of Precipitation, MM = Missing Value Source: Averaged Metar Reports

Daily Weather History Graph

Daily Weather History Graph

Search for Another Location

Airport or City:

Trip Planner

Search our weather history database for the weather conditions in past years. The results will help you decide how hot, cold, wet, or windy it might be!

Date:

Astronomy

Nov. 02, 2013 Rise Set
Actual Time 7:25 AM GMT 4:50 PM GMT
Civil Twilight 6:48 AM GMT 5:27 PM GMT
Nautical Twilight 6:07 AM GMT 6:08 PM GMT
Astronomical Twilight 5:26 AM GMT 6:49 PM GMT
Moon 6:00 AM GMT (11/2) 4:17 PM GMT (11/2)
Length of Visible Light 10h 38m
Length of Day
9h 24m
Waning Crescent, 1% of the Moon is Illuminated
Nov 2
Waning Crescent
Nov 3
New
Nov 10
First Quarter
Nov 17
Full
Nov 25
Last Quarter

Hourly Weather History & Observations

Time (GMT) Temp. Windchill Dew Point Humidity Pressure Visibility Wind Dir Wind Speed Gust Speed Precip Events Conditions
12:00 AM 39 °F - 38 °F 92% 29.60 in 12 mi WSW 4.5 mph - -   Scattered Clouds
12:00 AM 37.4 °F 33.8 °F 37.4 °F 100% 29.56 in 6.2 mi SW 4.6 mph - N/A   Partly Cloudy
12:30 AM 41.0 °F 36.4 °F 39.2 °F 93% 29.56 in 6.2 mi WSW 6.9 mph - N/A   Partly Cloudy
1:00 AM 39.2 °F - 37.4 °F 93% 29.56 in 6.2 mi North 1.2 mph - N/A   Partly Cloudy
1:30 AM 37.4 °F 34.9 °F 35.6 °F 93% 29.53 in 6.2 mi WSW 3.5 mph - N/A   Partly Cloudy
2:00 AM 35.6 °F - 33.8 °F 93% 29.53 in 6.2 mi WSW 1.2 mph - N/A   Partly Cloudy
2:30 AM 35.6 °F 31.7 °F 35.6 °F 100% 29.50 in 6.2 mi South 4.6 mph - N/A   Partly Cloudy
3:00 AM 35.6 °F 32.8 °F 35.6 °F 100% 29.50 in 6.2 mi South 3.5 mph - N/A   Partly Cloudy
3:30 AM 37.4 °F 32.8 °F 35.6 °F 93% 29.47 in 6.2 mi SSW 5.8 mph - N/A   Partly Cloudy
4:00 AM 41.0 °F 37.1 °F 37.4 °F 87% 29.44 in 6.2 mi SSE 5.8 mph - N/A   Scattered Clouds
4:30 AM 41.0 °F 35.8 °F 35.6 °F 81% 29.42 in 6.2 mi SSE 8.1 mph - N/A   Mostly Cloudy
5:00 AM 42.8 °F 37.5 °F 37.4 °F 81% 29.42 in 6.2 mi SSE 9.2 mph - N/A   Mostly Cloudy
5:30 AM 44.6 °F 38.1 °F 37.4 °F 76% 29.39 in 6.2 mi SSE 13.8 mph - N/A   Scattered Clouds
6:00 AM 43 °F - 39 °F 79% 29.34 in 19 mi SSE 8.9 mph - -   Scattered Clouds
6:00 AM 42.8 °F 37.0 °F 39.2 °F 87% 29.33 in 6.2 mi SE 10.4 mph - N/A   Scattered Clouds
6:30 AM 46.4 °F 40.7 °F 41.0 °F 81% 29.30 in 6.2 mi SSE 12.7 mph - N/A   Mostly Cloudy
7:00 AM 46.4 °F 39.0 °F 42.8 °F 87% 29.24 in 6.2 mi SE 19.6 mph - N/A Rain Light Rain
7:30 AM 46.4 °F 39.8 °F 42.8 °F 87% 29.24 in 6.2 mi SSE 16.1 mph - N/A   Mostly Cloudy
8:00 AM 48.2 °F - 42.8 °F 82% 29.21 in 6.2 mi SSE 19.6 mph - N/A   Mostly Cloudy
8:30 AM 48.2 °F - 44.6 °F 87% 29.18 in 6.2 mi SSE 20.7 mph - N/A Rain Light Rain Showers
9:00 AM 48.2 °F - 42.8 °F 82% 29.15 in 6.2 mi SSE 13.8 mph - N/A   Scattered Clouds
9:30 AM 51.8 °F - 42.8 °F 71% 29.12 in 6.2 mi South 17.3 mph - N/A   Scattered Clouds
10:00 AM 51.8 °F - 41.0 °F 67% 29.09 in 6.2 mi South 23.0 mph 36.8 mph N/A   Partly Cloudy
10:30 AM 51.8 °F - 41.0 °F 67% 29.06 in 6.2 mi South 21.9 mph - N/A Rain Light Rain Showers
11:00 AM 51.8 °F - 41.0 °F 67% 29.00 in 6.2 mi South 17.3 mph - N/A Rain Light Rain Showers
11:30 AM 48.2 °F - 44.6 °F 87% 28.97 in 6.2 mi South 16.1 mph - N/A Rain Light Rain Showers
12:00 PM 49 °F - 42 °F 69% 28.98 in 19 mi SW 29.1 mph - - Rain Light Rain Showers
12:00 PM 50.0 °F - 42.8 °F 76% 28.97 in 6.2 mi SW 28.8 mph - N/A   Partly Cloudy
12:30 PM 50.0 °F - 41.0 °F 71% 28.94 in 6.2 mi SW 29.9 mph 41.4 mph N/A   Scattered Clouds
1:00 PM 48.2 °F - 41.0 °F 76% 28.94 in 6.2 mi SW 26.5 mph - N/A Rain Light Rain Showers
1:30 PM 50.0 °F - 41.0 °F 71% 28.94 in 6.2 mi SW 27.6 mph - N/A   Scattered Clouds
2:00 PM 48.2 °F - 41.0 °F 76% 28.94 in 6.2 mi WSW 28.8 mph 46.0 mph N/A Rain Light Rain Showers
2:30 PM 48.2 °F - 41.0 °F 76% 28.94 in 6.2 mi WSW 25.3 mph - N/A   Scattered Clouds
3:00 PM 46.4 °F 38.3 °F 41.0 °F 81% 28.94 in 6.2 mi WSW 23.0 mph 35.7 mph N/A Rain Light Rain Showers
3:30 PM 44.6 °F 34.4 °F 41.0 °F 87% 28.97 in 6.2 mi WSW 32.2 mph 44.9 mph N/A Rain Light Rain Showers
4:00 PM 44.6 °F 34.9 °F 42.8 °F 93% 29.00 in 6.2 mi WSW 28.8 mph - N/A Rain Light Rain Showers
4:30 PM 46.4 °F 36.7 °F 41.0 °F 81% 29.00 in 6.2 mi West 33.4 mph 46.0 mph N/A Rain Light Rain
5:00 PM 44.6 °F 34.1 °F 41.0 °F 87% 29.06 in 6.2 mi West 34.5 mph 47.2 mph N/A Rain Light Rain
5:30 PM 44.6 °F 34.6 °F 39.2 °F 81% 29.09 in 6.2 mi West 31.1 mph - N/A Rain Light Rain Showers
6:00 PM 44 °F - 40 °F 79% 29.15 in 12 mi West 29.1 mph - - Rain Light Rain Showers
6:00 PM 44.6 °F 34.7 °F 39.2 °F 81% 29.12 in 6.2 mi West 29.9 mph 41.4 mph N/A Rain Light Rain Showers
6:30 PM 44.6 °F 34.2 °F 39.2 °F 81% 29.15 in 6.2 mi West 33.4 mph 44.9 mph N/A Rain Light Rain Showers
7:00 PM 44.6 °F 34.1 °F 39.2 °F 81% 29.18 in 6.2 mi West 34.5 mph 51.8 mph N/A Rain Light Rain Showers
7:30 PM 44.6 °F 34.2 °F 39.2 °F 81% 29.21 in 6.2 mi West 33.4 mph 44.9 mph N/A Rain Light Rain
8:00 PM 42.8 °F 32.1 °F 39.2 °F 87% 29.24 in 6.2 mi West 31.1 mph 43.7 mph N/A Rain Light Rain
8:30 PM 42.8 °F 32.3 °F 39.2 °F 87% 29.27 in 6.2 mi West 29.9 mph 41.4 mph N/A   Mostly Cloudy
9:00 PM 42.8 °F 31.9 °F 37.4 °F 81% 29.30 in 6.2 mi West 32.2 mph 44.9 mph N/A   Scattered Clouds
9:30 PM 42.8 °F 33.1 °F 37.4 °F 81% 29.30 in 6.2 mi West 25.3 mph - N/A   Partly Cloudy
10:00 PM 42.8 °F 33.8 °F 37.4 °F 81% 29.33 in 6.2 mi WSW 21.9 mph - N/A   Partly Cloudy
10:30 PM 42.8 °F 33.3 °F 35.6 °F 76% 29.33 in 6.2 mi West 24.2 mph - N/A   Partly Cloudy
11:00 PM 41.0 °F 30.7 °F 35.6 °F 81% 29.36 in 6.2 mi West 25.3 mph - N/A   Partly Cloudy
11:30 PM 41.0 °F 31.1 °F 35.6 °F 81% 29.36 in 6.2 mi West 23.0 mph - N/A   Partly Cloudy